SCP
0 0 1 1 1 1 2 2 1 1 1 1 1 1 1 1 1 1 1 1 1 1 1 1 1 1 1 1 1 1 1 1 1 1 1 1 1 1 1 1 1 0 0
0 0 1 1 1 1 1 1 1 1 1 1 1 1 1 1 1 1 1 1 1 1 1 1 1 1 1 1 1 1 1 1 1 1 1 0 1 1 1 1 1 0 0
0 0 1 1 1 1 1 1 1 1 1 1 1 1 1 1 1 1 1 1 1 1 1 1 1 0 0 0 1 1 1 0 0 0 0 0 0 1 1 1 1 0 0
0 0 1 1 1 1 1 1 1 1 1 1 1 1 1 1 1 1 1 1 0 0 0 0 0 0 0 0 0 0 0 0 0 0 0 0 0 0 1 1 1 0 0
0 0 1 1 1 1 1 1 1 1 1 1 1 1 1 1 1 1 1 1 0 0 0 0 0 0 0 0 0 0 0 0 0 0 0 0 0 0 1 1 0 0 0
1 0 1 1 1 1 1 1 1 1 1 1 1 1 1 1 1 1 1 1 0 0 0 0 0 0 0 0 0 0 0 0 0 0 0 0 0 0 1 0 0 0 0
1 0 0 1 1 1 1 1 1 1 1 1 1 1 1 1 1 1 1 1 0 0 0 0 0 0 0 0 1 0 0 0 0 0 0 0 0 0 0 0 0 0 0
1 0 0 1 1 1 1 1 1 1 1 1 1 1 1 0 0 0 0 0 1 1 1 0 0 0 0 1 1 0 0 0 0 0 0 0 0 0 0 0 1 1 1
1 0 0 0 1 1 1 1 1 1 1 1 1 1 1 0 0 0 0 0 1 1 1 0 0 0 1 1 1 0 0 0 0 0 0 0 0 0 0 0 1 1 1
1 0 0 0 0 1 1 1 1 1 1 1 1 1 1 0 0 0 0 0 1 1 1 0 0 1 1 1 1 0 0 0 0 0 0 0 1 1 0 0 1 1 1
0 0 0 0 0 1 1 1 1 1 1 1 1 1 1 0 0 0 0 0 1 0 0 0 0 0 1 0 0 0 0 0 0 0 0 1 1 1 1 1 1 1 1
1 1 0 0 0 0 0 0 0 0 1 1 1 1 0 0 0 0 0 0 0 0 0 0 0 0 0 0 0 0 0 0 0 0 0 1 1 1 1 1 1 1 1
1 1 1 1 0 0 0 0 0 0 0 0 0 0 0 0 0 0 0 0 0 0 0 0 0 0 0 0 0 0 0 0 0 0 0 0 1 1 1 1 1 1 1
1 1 1 1 1 0 0 0 0 0 0 0 0 0 0 0 0 0 0 0 0 0 0 0 0 0 0 0 0 0 0 0 0 0 0 0 0 1 1 1 1 1 1
1 1 1 1 1 1 0 0 0 0 0 0 0 0 0 0 0 0 0 0 0 0 0 0 0 0 0 0 0 0 0 0 0 0 0 0 0 1 1 1 1 1 1
1 1 1 1 1 1 0 0 0 0 0 0 0 0 0 0 0 0 0 0 0 0 0 0 0 0 0 0 0 0 0 0 0 0 0 0 0 0 1 1 1 1 1
1 1 1 1 1 1 1 0 0 0 0 0 0 0 0 0 0 0 0 0 0 0 0 0 0 0 0 0 0 0 0 0 0 0 0 0 0 0 0 0 0 0 0
1 1 1 1 1 1 1 0 0 0 0 0 0 0 0 0 0 0 0 0 0 0 0 0 0 0 0 0 0 0 0 0 0 0 0 0 0 0 0 0 0 0 0
1 1 1 2 1 1 0 0 0 0 0 0 0 0 0 0 0 0 0 0 0 0 0 0 0 0 0 0 0 0 0 0 0 0 0 0 0 0 0 0 0 0 0
1 1 2 2 1 1 0 0 0 0 0 0 0 0 0 0 0 0 0 0 0 0 0 0 0 0 0 0 0 0 0 0 0 0 0 0 0 0 0 0 0 0 0
0 1 2 2 2 1 1 0 0 0 0 0 0 0 0 0 0 0 0 0 0 0 0 0 0 0 0 0 0 0 0 0 0 0 0 0 0 0 0 0 0 0 0
0 1 2 2 2 2 1 1 0 0 0 0 0 0 0 0 0 0 0 0 0 0 0 0 0 0 0 0 0 0 0 0 0 0 0 0 0 0 0 0 0 0 0
1 1 2 3 3 2 2 1 1 0 0 0 0 0 0 0 0 0 0 0 0 0 0 0 0 0 0 0 0 0 0 0 0 0 0 0 0 0 0 0 0 0 0
1 1 2 3 3 3 2 1 1 1 0 0 0 0 0 0 0 0 0 0 0 0 0 0 0 0 0 0 0 0 0 0 0 0 0 0 0 0 0 0 0 0 0
1 1 2 3 3 3 3 2 1 1 0 0 0 0 0 0 0 0 0 0 0 0 0 0 0 0 0 0 0 0 0 0 0 0 0 0 0 0 0 0 0 0 0
1 1 2 3 3 4 3 2 1 1 0 0 0 0 0 0 0 0 0 0 0 0 0 0 0 0 0 0 0 0 0 0 0 0 0 0 0 0 0 0 0 0 0
Wind_Speed
1 2 6 7 8 8 9 9 9 10 10 11 11 11 11 11 11 10 10 10 10 9 9 9 9 9 9 9 9 8 8 8 8 8 8 8 8 8 8 8 7 4 7
5 4 7 8 9 9 9 9 9 10 10 10 10 10 10 10 10 10 9 9 9 9 9 9 8 8 8 8 8 8 7 7 8 8 8 8 8 8 7 8 8 5 7
6 5 6 8 9 9 9 9 9 10 10 10 10 10 9 9 9 9 9 9 9 9 9 8 8 8 8 8 7 7 7 7 8 8 7 4 4 8 8 8 8 8 7
7 5 6 9 9 9 9 9 9 9 9 9 9 9 9 9 9 9 9 9 9 8 8 8 7 7 7 7 7 7 8 8 9 8 4 3 3 8 8 8 7 8 7
6 5 6 10 9 9 9 8 9 9 9 9 8 8 8 8 8 8 8 8 8 8 7 7 7 7 6 6 7 7 8 9 10 8 4 3 3 7 8 8 7 7 7
6 5 6 10 10 9 9 8 8 8 8 8 8 8 8 8 8 8 8 8 7 7 7 7 7 7 7 7 8 8 10 10 9 5 4 3 2 7 8 8 7 7 6
6 5 6 9 9 9 9 8 8 8 7 8 8 8 7 8 8 8 8 8 7 7 7 7 7 7 7 8 8 10 10 10 6 4 3 3 3 7 8 8 7 7 7
7 5 5 9 9 9 8 8 8 7 7 7 7 7 7 7 7 8 7 7 7 7 7 7 6 7 7 9 10 10 10 9 7 5 4 3 5 7 8 8 7 7 7
6 5 4 4 5 7 8 7 7 7 7 7 7 6 6 6 6 7 7 7 7 7 7 7 7 7 8 9 10 11 11 10 5 3 4 3 6 8 8 8 8 8 8
5 5 5 4 3 3 3 6 6 7 7 6 6 6 6 6 6 6 6 7 7 7 7 7 7 7 8 9 10 11 11 8 5 4 2 4 9 9 9 9 9 9 9
5 4 5 4 3 3 2 4 4 5 5 5 4 5 4 2 2 3 5 6 6 7 7 6 7 7 8 9 10 11 8 3 4 3 2 7 9 10 10 10 10 10 9
5 5 5 5 4 3 3 2 1 1 2 1 1 2 2 2 1 2 4 6 6 6 5 5 5 6 6 4 7 8 4 4 3 3 3 8 9 10 10 10 10 10 10
6 6 5 5 5 4 2 2 1 1 1 1 2 2 2 2 2 2 1 2 3 4 3 3 3 3 3 3 4 4 4 4 3 3 4 9 10 10 11 10 11 10 10
6 6 6 5 4 4 3 2 2 1 1 1 2 3 2 2 2 2 1 1 1 1 2 2 2 3 4 4 5 5 4 3 3 2 4 9 10 11 11 11 11 11 11
6 6 6 6 5 4 3 2 2 2 2 2 2 3 3 3 2 2 1 1 1 1 2 2 2 3 4 4 5 5 5 4 4 4 3 9 10 11 11 11 11 11 11
7 7 5 6 5 4 3 3 2 2 2 2 2 3 4 3 3 3 2 2 2 2 2 2 3 4 4 4 5 5 5 4 4 3 3 5 9 11 11 12 12 12 12
7 6 6 7 6 5 4 4 3 3 3 2 2 3 4 4 4 3 3 2 2 2 3 3 4 4 4 4 5 5 4 4 4 4 4 3 4 9 11 12 13 13 13
7 6 6 6 6 5 4 4 3 3 3 2 2 2 4 4 4 4 3 3 3 3 3 3 3 4 4 4 3 3 3 3 4 3 3 4 4 4 8 13 13 13 13
7 6 5 5 6 5 4 4 3 3 3 2 2 2 3 4 4 4 3 2 3 3 3 4 3 3 3 3 3 3 3 3 3 4 4 4 4 4 4 8 13 14 14
6 6 6 5 5 4 3 3 3 3 2 2 2 3 3 3 4 4 3 3 3 3 3 3 4 3 3 3 4 4 3 3 3 3 3 3 3 4 5 5 5 8 13
5 5 6 6 4 4 3 3 3 2 1 1 2 3 3 4 4 4 4 3 3 3 3 4 3 4 2 3 4 4 4 4 4 3 3 3 4 4 4 4 4 4 5
6 6 6 6 5 5 4 3 3 3 1 1 1 2 3 3 4 5 5 3 3 4 4 4 3 3 1 1 3 3 2 4 4 4 3 3 3 3 4 5 4 4 4
7 8 7 7 6 5 5 3 3 3 2 2 1 1 1 2 3 4 5 4 4 4 4 3 3 4 2 0 1 3 4 2 0 3 4 3 3 3 3 3 4 4 4
8 7 8 7 6 6 6 6 6 4 3 2 2 1 1 2 3 3 4 5 4 3 4 3 3 2 3 1 0 1 2 4 4 1 2 3 3 3 3 3 3 3 3
7 7 7 7 6 6 6 7 7 4 3 2 1 2 1 1 2 3 4 4 4 3 3 3 3 2 2 2 1 1 2 2 2 4 2 1 3 3 2 2 2 2 3
6 6 6 7 6 6 6 6 7 7 5 4 3 3 2 1 1 2 3 3 4 3 4 3 3 3 2 2 2 2 2 2 2 3 3 2 1 1 3 2 2 2 2
Wind_Direction
138 147 118 115 111 104 99 98 96 97 97 95 93 93 93 92 92 93 93 93 91 89 87 86 83 81 81 82 83 85 86 88 86 85 84 85 84 80 81 81 78 69 83
145 136 120 116 112 109 103 98 99 98 97 97 94 93 93 92 92 92 92 91 91 90 89 87 84 82 79 79 80 82 82 84 86 84 81 79 80 78 79 81 83 78 78
128 128 121 117 112 110 107 103 103 102 99 98 97 95 94 93 92 92 93 93 93 94 92 88 86 80 76 75 75 76 75 81 84 82 80 68 71 75 76 79 78 73 73
129 129 123 118 115 113 110 107 106 107 105 102 100 99 97 96 94 93 94 94 93 92 90 88 87 83 80 77 72 71 73 79 81 78 72 57 60 75 74 74 73 70 70
127 129 129 123 120 117 114 110 109 108 108 106 104 102 98 97 98 96 95 95 94 92 89 89 88 85 81 78 74 75 79 81 80 70 68 58 54 75 75 72 70 68 66
128 128 131 127 124 121 118 114 114 112 112 110 109 107 103 100 97 96 97 95 95 97 95 94 91 85 80 77 79 81 85 86 76 64 59 57 56 75 75 71 68 65 62
137 139 137 130 127 124 122 121 121 118 116 114 112 112 107 103 101 100 97 94 95 100 100 97 94 88 81 78 80 89 90 87 76 67 58 52 66 76 73 70 66 61 59
146 145 140 137 133 132 129 130 131 127 122 120 120 118 115 110 105 100 99 97 98 101 104 102 96 91 84 79 84 89 88 88 81 73 61 55 79 78 74 70 63 59 59
144 139 135 139 137 137 136 136 136 133 130 127 125 123 121 116 110 107 103 101 101 102 104 104 98 91 84 83 86 88 88 85 71 64 74 60 79 79 77 70 64 63 62
147 145 147 145 141 147 146 144 142 142 140 134 128 122 114 107 104 109 107 104 103 102 103 102 96 86 81 82 84 88 86 77 63 59 52 73 77 76 74 68 66 64 61
146 151 154 156 155 161 170 159 148 146 146 140 133 127 103 80 79 94 115 113 107 104 102 97 91 84 77 77 83 87 78 62 63 57 55 79 78 75 71 68 65 63 59
157 168 166 169 169 174 169 137 130 139 135 132 134 128 112 110 101 101 106 112 110 102 92 85 81 74 67 64 76 81 68 62 59 54 69 80 79 76 72 68 64 60 59
168 166 167 169 172 171 161 152 152 131 134 148 151 143 129 110 96 80 75 83 76 76 56 57 56 56 70 76 82 81 79 69 53 45 62 76 77 77 75 71 66 62 59
160 163 164 166 167 172 162 163 161 151 149 148 156 150 135 124 115 105 98 90 72 65 65 57 62 73 75 78 91 89 85 79 64 47 56 70 74 75 76 72 68 65 61
161 165 165 165 164 163 153 163 152 157 155 156 148 151 144 135 135 123 115 99 89 87 92 86 82 85 82 80 90 93 90 85 74 58 46 67 73 71 71 69 67 65 62
167 170 166 163 163 155 152 150 148 148 149 134 136 152 146 140 137 124 115 101 96 96 92 95 97 94 89 84 82 85 89 89 81 70 48 54 65 67 65 64 63 64 63
169 166 168 165 161 153 149 154 143 138 132 124 134 136 138 140 136 128 119 110 111 100 90 83 84 82 82 78 75 78 81 79 82 72 60 42 43 58 63 61 59 60 61
162 161 168 163 155 151 148 146 141 132 127 128 127 124 130 134 134 125 116 110 108 97 93 94 88 81 75 75 73 70 72 75 79 79 67 55 46 48 54 58 56 56 58
163 157 154 150 151 148 143 132 130 124 122 126 118 112 118 121 126 124 116 115 110 101 101 108 90 98 94 85 81 69 60 64 68 81 76 65 58 57 52 56 56 54 55
160 152 149 146 144 137 127 111 98 92 98 101 115 123 124 125 123 119 119 119 116 106 96 98 100 90 98 106 92 71 50 49 55 65 78 74 65 66 61 56 47 47 50
151 150 151 149 150 139 133 130 127 132 131 108 122 126 122 124 124 125 127 123 121 121 121 117 107 96 88 103 90 62 34 36 45 43 55 70 66 65 64 57 50 43 38
166 163 163 162 159 156 157 158 154 148 143 139 119 106 114 127 136 136 132 130 127 118 110 110 113 111 110 117 118 105 58 18 18 31 40 63 64 64 68 67 59 52 41
173 173 174 176 167 164 154 130 107 83 65 56 68 93 113 135 137 130 137 134 132 129 134 136 134 132 141 117 135 136 138 166 13 6 28 43 53 64 63 63 62 53 50
185 178 172 174 172 171 155 145 144 142 151 184 183 167 135 121 129 134 135 133 137 138 143 153 146 140 135 146 6 89 142 148 141 106 9 20 42 57 57 66 64 53 47
180 175 170 169 170 169 159 154 148 147 159 155 144 138 134 110 131 135 133 132 136 141 147 144 136 137 136 149 157 126 94 83 107 131 136 23 32 30 40 58 68 59 47
174 170 165 165 170 167 160 158 157 159 157 148 154 159 163 143 143 143 139 136 146 151 159 154 146 141 140 131 125 125 138 139 148 135 141 143 100 18 32 37 48 53 51